Welcome to the New NWS' Forecast!
Most changes are behind the scenes, but click here for differences you might notice.

Regional Weather Roundup (RWR)

Issued by Gray - Portland, ME (GYX)

                            
000
ASUS41 KGYX 230810
RWRGYX
WEATHER ROUNDUP FOR MAINE AND NEW HAMPSHIRE
NATIONAL WEATHER SERVICE GRAY ME
400 AM EDT TUE OCT 23 2018

MEZ002-005-006-010-012-015-018-020-021-024-026-027-029-230900-
MAINE
  
CITY           SKY/WX    TMP DP  RH WIND       PRES   REMARKS
PORTLAND       CLOUDY    38  34  85 CALM      30.16F                  
BAR HARBOR     CLOUDY    28  26  92 N3        30.20F                  
WISCASSET      CLOUDY    33  30  88 CALM      30.18F                  
ROCKLAND       CLOUDY    36  31  82 NE5       30.18F                  
FRYEBURG       CLOUDY    33  30  88 CALM      30.14S                  
LEWISTONAUBURN CLOUDY    32  29  88 N3        30.15F                  
AUGUSTA        CLOUDY    33  25  72 E5        30.16F                  
WATERVILLE     CLOUDY    33  22  63 NE3       30.14F                  
BANGOR         CLOUDY    30  26  85 CALM      30.20S                  
GREENVILLE       N/A     30  23  75 NE3       30.09F                  
MILLINOCKET    CLOUDY    28  22  78 CALM      30.18F                  
HOULTON        FAIR      19  17  92 CALM      30.16S                  
PRESQUE ISLE   FAIR      21  18  88 S3        30.16R                  
FRENCHVILLE    FAIR      27  16  63 NW8       30.11R                  
CARIBOU        FAIR      24  17  74 W5        30.13S                  
$$

NHZ002-005-008-009-011-012-014-230900-
NEW HAMPSHIRE
  
CITY           SKY/WX    TMP DP  RH WIND       PRES   REMARKS
PORTSMOUTH     MOCLDY    41  33  74 SW5       30.14S                  
ROCHESTER      CLOUDY    39  35  86 CALM      30.14F                  
NASHUA         CLOUDY    38  34  85 CALM      30.15F                  
MANCHESTER     CLOUDY    41  33  73 S5        30.13F                  
CONCORD        CLOUDY    40  34  79 SE5       30.13F                  
LACONIA        CLOUDY    39  35  86 CALM      30.13S                  
PLYMOUTH       CLOUDY    35  33  94 CALM      30.13S                  
BERLIN         CLOUDY    34  29  82 CALM      30.10F                  
WHITEFIELD     CLOUDY    34  30  85 CALM      30.09F                  
JAFFREY        CLOUDY    39  35  86 S5        30.12F                  
KEENE          CLOUDY    38  35  89 CALM      30.13F                  
LEBANON        CLOUDY    38  33  82 CALM      30.11S                  
MT WASHINGTON  SNOW      19  19 100 W28         N/A  VSB 0   WCI   1  
$$

VTZ005-007-008-230900-
VERMONT
  
CITY           SKY/WX    TMP DP  RH WIND       PRES   REMARKS
ST JOHNSBURY     N/A     35  30  82 MISG      30.09F                  
MONTPELIER     CLOUDY    36  34  92 CALM      30.11F                  
BURLINGTON     CLOUDY    42  34  73 CALM      30.09S                  
$$

MAZ007-012-024-CTZ003-RIZ002-NYZ038-NYZ072-230900-
SOUTHERN NEW ENGLAND AND NY
  
CITY           SKY/WX    TMP DP  RH WIND       PRES   REMARKS
BOSTON         CLOUDY    44  35  70 S3        30.17S                  
WORCESTER      CLOUDY    38  33  82 SW7       30.12F                  
NANTUCKET      LGT RAIN  46  42  86 E3        30.20S                  
PROVIDENCE     CLOUDY    41  37  86 CALM      30.16F                  
HARTFORD       CLOUDY    37  35  92 CALM      30.14F                  
ALBANY         CLOUDY    44  34  67 S6        30.09F                  
NEW YORK CITY  CLOUDY    47  40  76 S7        30.12F                  
$$

ANZ081-ANZ082-ANZ150-NHZ014-MEZ023>029-230900-
COASTAL MARINE OBSERVATIONS
  
STATION/POSITION TIME  TEMP    WIND        PRES    WAVE
                       AIR SEA DIR/SP/G            HT/PER
                 (UTC) (F)     (DEG/KT/KT) (MB)    (FT/S)
MOUNT DESERT ROC 0800   44      60/ 10/ 12 1022.4F
MATINICUS ROCK   0700   45      80/  7/  7 1021.6F
ISLE OF SHOALS   0700   47     230/ 13/ 14 1020.9F
JEFFREYS LEDGE   0706      54                N/A     2/11
$$

.............KEY..............
   WCI - WIND CHILL
   TC  - TEMPERATURE IN CELSIUS
   VSB - VISIBILITY IN MILES
   HX  - HEAT INDEX
   FAIR- INDICATES FEW OR NO CLOUDS BELOW 12,000 FT, WITH NO 
         SIGNIFICANT WEATHER AND/OR OBSTRUCTIONS TO VISIBILITY.